Location: Brede
(50.9167°N, 0.6000°E)
Time: 14:30:54
(UTC+00:00)

Vanguard 2 Rocket - Visible Passes

Search period start: 12 June 2021 00:00
Search period end: 22 June 2021 00:00
Orbit: 554 x 3325 km, 32.9° (Epoch: 12 June)

Date Brightness Start Highest point End Pass type
(mag) Time Alt. Az. Time Alt. Az. Time Alt. Az.
12 Jun 8.8 01:51:28 10° WSW 01:58:46 10° S 01:53:41 13° SW visible
12 Jun 9.0 22:32:44 10° SW 22:43:37 28° S 22:50:49 10° SE visible
13 Jun 8.6 00:49:14 10° WSW 00:56:13 20° SSW 00:57:24 20° S visible
13 Jun 9.3 21:31:12 10° SW 21:43:30 28° S 21:51:48 10° ESE visible
13 Jun 8.8 23:47:15 10° WSW 23:56:44 26° SSW 00:00:51 18° SSE visible
14 Jun 9.2 02:06:14 10° SW 02:06:36 10° SW 02:06:36 10° SW visible
14 Jun 9.0 22:45:16 10° WSW 22:56:57 30° S 23:04:12 11° SE visible
15 Jun 8.8 01:02:48 10° WSW 01:09:19 18° SSW 01:09:57 18° SSW visible
15 Jun 9.2 21:43:23 10° SW 21:56:49 32° S 22:05:40 10° ESE visible
16 Jun 8.8 00:00:24 10° WSW 00:09:55 25° SSW 00:13:15 20° S visible
16 Jun 9.5 20:41:43 10° SW 20:56:22 33° S 21:06:25 10° ESE visible
16 Jun 9.0 22:58:08 10° WSW 23:10:10 30° SSW 23:16:30 16° SE visible
17 Jun 9.1 01:16:54 10° WSW 01:22:14 15° SW 01:22:15 15° SW visible
17 Jun 9.2 21:55:58 10° WSW 22:10:03 34° S 22:19:17 10° SE visible
18 Jun 8.9 00:13:51 10° WSW 00:22:56 22° SSW 00:25:29 20° S visible
18 Jun 9.5 20:54:00 10° SW 21:09:34 36° S 21:20:10 10° ESE visible
18 Jun 9.1 23:11:14 10° WSW 23:23:16 29° SSW 23:28:42 19° SSE visible
19 Jun 9.5 01:32:24 10° WSW 01:34:28 11° SW 01:34:28 11° SW visible
19 Jun 9.3 22:08:49 10° WSW 22:23:11 34° SSW 22:31:55 13° SE visible
20 Jun 9.2 00:27:41 10° WSW 00:35:45 19° SW 00:37:40 18° SSW visible
20 Jun 9.5 21:06:37 10° WSW 21:22:42 38° S 21:33:41 10° SE visible
20 Jun 9.1 23:24:36 10° WSW 23:36:11 26° SSW 23:40:51 20° S visible
21 Jun 9.4 22:21:55 10° WSW 22:36:11 32° SSW 22:44:03 16° SSE visible
